This is the latest recevied weather packets stored in our database for station/object DG9BJA-13. If no packets are shown the sender has not sent any weather packets the latest 1 day(s).
| Time | Temp. | Humidity | Pressure | Rain* | Wind** | Luminosity | Snow |
|---|---|---|---|---|---|---|---|
| 1778091977 | 8.33° C | 93% | 1009.4 hPa | 0 mm | - | 19 W/m² | - |
| 1778091377 | 8.33° C | 93% | 1009.4 hPa | 0 mm | - | 25 W/m² | - |
| 1778090777 | 8.33° C | 93% | 1009.2 hPa | 0 mm | - | 39 W/m² | - |
| 1778089577 | 8.33° C | 94% | 1009.1 hPa | 0 mm | - | 84 W/m² | - |
| 1778088377 | 8.33° C | 94% | 1008.9 hPa | 0.25 mm | - | 149 W/m² | - |
| 1778087777 | 8.33° C | 94% | 1008.9 hPa | 0.25 mm | - | 144 W/m² | - |
| 1778087177 | 8.33° C | 94% | 1008.9 hPa | 0.51 mm | - | 155 W/m² | - |
| 1778086577 | 8.33° C | 94% | 1008.9 hPa | 0.51 mm | - | 169 W/m² | - |
| 1778085977 | 8.89° C | 95% | 1008.9 hPa | 0.51 mm | - | 174 W/m² | - |
| 1778082377 | 7.78° C | 95% | 1008.9 hPa | 0.76 mm | - | 128 W/m² | - |
| 1778080577 | 7.78° C | 94% | 1008.9 hPa | 1.27 mm | - | 149 W/m² | - |
| 1778079376 | 7.22° C | 95% | 1008.9 hPa | 1.52 mm | - | 128 W/m² | - |
| 1778078176 | 7.78° C | 95% | 1008.9 hPa | 2.03 mm | - | 114 W/m² | - |
| 1778076976 | 7.22° C | 95% | 1008.9 hPa | 1.78 mm | - | 100 W/m² | - |
| 1778075176 | 7.78° C | 95% | 1008.8 hPa | 1.52 mm | - | 65 W/m² | - |
| 1778074576 | 7.78° C | 95% | 1008.6 hPa | 1.78 mm | - | 51 W/m² | - |
| 1778073976 | 7.78° C | 95% | 1008.4 hPa | 2.03 mm | - | 44 W/m² | - |
| 1778073376 | 7.78° C | 95% | 1008.4 hPa | 2.03 mm | - | 40 W/m² | - |
| 1778072776 | 7.78° C | 95% | 1008.4 hPa | 2.54 mm | - | 37 W/m² | - |
| 1778070976 | 7.78° C | 95% | 1008.4 hPa | 2.29 mm | - | 67 W/m² | - |
| 1778069776 | 7.78° C | 95% | 1008.4 hPa | 2.29 mm | - | 76 W/m² | - |
| 1778064977 | 7.78° C | 95% | 1007.9 hPa | 2.29 mm | - | 95 W/m² | - |
| 1778064377 | 7.78° C | 95% | 1007.9 hPa | 2.03 mm | - | 81 W/m² | - |
| 1778063777 | 7.78° C | 95% | 1007.9 hPa | 1.78 mm | - | 77 W/m² | - |
| 1778062577 | 7.78° C | 95% | 1007.8 hPa | 1.27 mm | - | 67 W/m² | - |
* Rain latest hour (hover to see other rain measurements)
** Current wind speed in m/s (hover to see current wind gust speed)